Location: *
(38.9555°S, 57.3572°E)
Time: 01:56:42
(UTC+00:00)

SJ 16-02 - Pass Details

Date: 15 July 2020
Orbit: 606 x 617 km, 75.0° (Epoch: 06 August)

Event Time Altitude Azimuth Distance (km) Brightness Sun altitude
Rises 14:18:54 0° 356° (N) 2,857 5.1 -13.7°
Reaches altitude 10° 14:21:09 10° 360° (N) 1,961 4.1 -14.1°
Maximum altitude 14:25:25 54° 77° (ENE) 750 1.4 -14.9°
Enters shadow 14:28:40 17° 149° (SSE) 1,576 3.0 -15.5°
